Fidato — PB5970 — position and weather

sailwx.info

Track history (hours):
 
Tides and Currents Weather Stations Pressure Air Temp Water Temp Dewpoint Dewpoint Depression Visibility Wind Speed Wind Dir Waves Ship Positions

Fidato

Last reported at 2014-Oct-23 23:30 UTC. Time now 2014-Oct-24 07:48 UTC.
Position N 51°20' E 006°41'.

Length 135 m; draft 2.5 m.

Type: Ship. MMSI: 244670975.

Date/timePositionNaut miles runAvg speedWind from/ knotsBaromVisibWave heightAir tempDewpointWater temp
2014-Oct-23 23:30N 51°20' E 006°41'1 1.4
2014-Oct-23 22:33N 51°21' E 006°39'6 6.2
2014-Oct-23 21:33N 51°15' E 006°43'5 4.9
2014-Oct-23 20:33N 51°11' E 006°47'6 6.2
2014-Oct-23 19:33N 51°06' E 006°53'88 5.8
2014-Oct-23 04:27N 50°04' E 008°32'3 0.5
2014-Oct-22 21:33N 50°05' E 008°36'5 4.9
2014-Oct-22 20:33N 50°06' E 008°44'2 2.2
2014-Oct-22 19:33N 50°07' E 008°47'4 3.6
2014-Oct-22 18:33N 50°07' E 008°52'2 1.9
2014-Oct-22 17:33N 50°07' E 008°55'0 0.0
2014-Oct-22 16:33N 50°07' E 008°55'0 0.0
2014-Oct-22 15:33N 50°07' E 008°55'0 0.0
2014-Oct-22 14:33N 50°07' E 008°55'0 0.0
2014-Oct-22 13:33N 50°07' E 008°55'0 0.0
2014-Oct-22 12:33N 50°07' E 008°55'0 0.0
2014-Oct-22 11:33N 50°07' E 008°55'0 0.1
2014-Oct-22 10:33N 50°07' E 008°55'0 0.0
2014-Oct-22 09:33N 50°07' E 008°55'0 0.0
2014-Oct-22 08:33N 50°07' E 008°55'2 1.8
2014-Oct-22 07:33N 50°07' E 008°52'4 3.8
2014-Oct-22 06:33N 50°07' E 008°46'3 2.9
2014-Oct-22 05:32N 50°06' E 008°42'6 4.5
2014-Oct-22 04:12N 50°06' E 008°33'  
2014-Oct-18 05:10N 51°05' E 006°51'2 4.0
2014-Oct-18 04:33N 51°07' E 006°52'3 2.8
2014-Oct-18 03:33N 51°09' E 006°49'3 3.1
2014-Oct-18 02:33N 51°11' E 006°45'0 0.1
2014-Oct-18 01:33N 51°11' E 006°45'0 0.0
2014-Oct-18 00:33N 51°11' E 006°45'0 0.0
2014-Oct-17 23:33N 51°11' E 006°45'0 0.0
2014-Oct-17 22:33N 51°11' E 006°45'0 0.0
2014-Oct-17 21:33N 51°11' E 006°45'0 0.0
2014-Oct-17 20:33N 51°11' E 006°45'0 0.1
2014-Oct-17 19:33N 51°11' E 006°45'3 2.8
2014-Oct-17 18:33N 51°14' E 006°45'2 2.5
2014-Oct-17 17:33N 51°16' E 006°43'4 4.2
2014-Oct-17 16:33N 51°20' E 006°43'31 3.6
2014-Oct-17 08:09N 51°47' E 006°19'19 5.1
2014-Oct-17 04:31N 51°52' E 005°50'6 6.1
2014-Oct-17 03:33N 51°54' E 005°41'5 5.5
2014-Oct-17 02:33N 51°54' E 005°32'0 0.0
2014-Oct-17 01:33N 51°54' E 005°32'0 0.0
2014-Oct-17 00:33N 51°54' E 005°32'0 0.0
2014-Oct-16 23:33N 51°54' E 005°32'0 0.0
2014-Oct-16 22:32N 51°54' E 005°32'0 0.0
2014-Oct-16 21:33N 51°54' E 005°32'0 0.0
2014-Oct-16 20:33N 51°54' E 005°32'0 0.0
2014-Oct-16 19:33N 51°54' E 005°32'3 2.5
2014-Oct-16 18:33N 51°53' E 005°29'6 5.6
2014-Oct-16 17:33N 51°49' E 005°23'5 4.8
2014-Oct-16 16:33N 51°49' E 005°15'6 5.9
2014-Oct-16 15:33N 51°50' E 005°05'7 6.9
2014-Oct-16 14:33N 51°49' E 004°54'7 6.9
2014-Oct-16 13:33N 51°49' E 004°43'3 2.6
2014-Oct-16 12:34N 51°49' E 004°39'3 2.5
2014-Oct-16 11:33N 51°46' E 004°38'7 6.8
2014-Oct-16 10:30N 51°42' E 004°29'3 3.7
2014-Oct-16 09:33N 51°41' E 004°24'7 7.3
2014-Oct-16 08:33N 51°39' E 004°12'2 1.5
2014-Oct-16 07:32N 51°40' E 004°10'4 4.6
2014-Oct-16 06:33N 51°37' E 004°04'5 5.5
2014-Oct-16 05:33N 51°32' E 003°60'5 5.1
2014-Oct-16 04:33N 51°27' E 004°01'1010.0
2014-Oct-16 03:34N 51°20' E 003°49'1 0.6
2014-Oct-16 02:33N 51°20' E 003°49'0 0.0
2014-Oct-16 01:33N 51°20' E 003°49'0 0.0
2014-Oct-16 00:33N 51°20' E 003°49'0 0.0
2014-Oct-15 23:33N 51°20' E 003°49'0 0.0
2014-Oct-15 22:33N 51°20' E 003°49'0 0.0
2014-Oct-15 21:33N 51°20' E 003°49'7 7.0
2014-Oct-15 20:33N 51°13' E 003°48'8 7.5
2014-Oct-15 19:33N 51°06' E 003°45'0 0.3
2014-Oct-15 18:34N 51°05' E 003°45'0 0.0
2014-Oct-15 17:33N 51°05' E 003°45'0 0.0
2014-Oct-15 16:33N 51°05' E 003°45'0 0.0
2014-Oct-15 15:33N 51°05' E 003°45'0 0.0
2014-Oct-15 14:33N 51°05' E 003°45'0 0.0
2014-Oct-15 13:33N 51°05' E 003°45'0 0.0
2014-Oct-15 12:33N 51°05' E 003°45'0 0.3
2014-Oct-15 11:33N 51°06' E 003°45'0 0.0
2014-Oct-15 10:33N 51°06' E 003°45'0 0.0
2014-Oct-15 09:33N 51°06' E 003°45'0 0.0
2014-Oct-15 08:33N 51°06' E 003°45'4 3.6
2014-Oct-15 07:33N 51°09' E 003°47'0 0.1
2014-Oct-15 06:33N 51°09' E 003°47'0 0.0
2014-Oct-15 05:33N 51°09' E 003°47'0 0.0
2014-Oct-15 04:33N 51°09' E 003°47'0 0.0
2014-Oct-15 03:34N 51°09' E 003°47'0 0.0
2014-Oct-15 02:33N 51°09' E 003°47'0 0.0
2014-Oct-15 01:34N 51°09' E 003°47'0 0.0
2014-Oct-15 00:33N 51°09' E 003°47'0 0.0
2014-Oct-14 23:33N 51°09' E 003°47'0 0.0
2014-Oct-14 22:33N 51°09' E 003°47'0 0.0
2014-Oct-14 21:33N 51°09' E 003°47'0 0.0
2014-Oct-14 20:33N 51°09' E 003°47'0 0.0
2014-Oct-14 19:33N 51°09' E 003°47'0 0.0
2014-Oct-14 18:33N 51°09' E 003°47'0 0.0
2014-Oct-14 17:33N 51°09' E 003°47'0 0.0
2014-Oct-14 16:33N 51°09' E 003°47'5 4.9
2014-Oct-14 15:33N 51°14' E 003°48'6 5.9
2014-Oct-14 14:33N 51°20' E 003°49'0 0.0
2014-Oct-14 13:31N 51°20' E 003°49'0 0.0
2014-Oct-14 12:33N 51°20' E 003°49'0 0.0
2014-Oct-14 11:33N 51°20' E 003°49'0 0.0
2014-Oct-14 10:33N 51°20' E 003°49'0 0.0
2014-Oct-14 09:33N 51°20' E 003°49'0 0.0
2014-Oct-14 08:33N 51°20' E 003°49'0 0.0
2014-Oct-14 07:33N 51°20' E 003°49'0 0.0
2014-Oct-14 06:33N 51°20' E 003°49'0 0.0
2014-Oct-14 05:33N 51°20' E 003°49'0 0.0
2014-Oct-14 04:33N 51°20' E 003°49'0 0.0
2014-Oct-14 03:33N 51°20' E 003°49'0 0.0
2014-Oct-14 02:31N 51°20' E 003°49'0 0.0
2014-Oct-14 01:32N 51°20' E 003°49'0 0.0
2014-Oct-14 00:32N 51°20' E 003°49'0 0.0
2014-Oct-13 23:33N 51°20' E 003°49'  
Track history (hours):
 
Tides and Currents Weather Stations Pressure Air Temp Water Temp Dewpoint Dewpoint Depression Visibility Wind Speed Wind Dir Waves Ship Positions

Fidato

Last reported at 2014-Oct-23 23:30 UTC. Time now 2014-Oct-24 07:48 UTC.
Position N 51°20' E 006°41'.

Length 135 m; draft 2.5 m.

Type: Ship. MMSI: 244670975.

Date/timePositionNaut miles runAvg speedWind from/ knotsBaromVisibWave heightAir tempDewpointWater temp
2014-Oct-23 23:30N 51°20' E 006°41'1 1.4
2014-Oct-23 22:33N 51°21' E 006°39'6 6.2
2014-Oct-23 21:33N 51°15' E 006°43'5 4.9
2014-Oct-23 20:33N 51°11' E 006°47'6 6.2
2014-Oct-23 19:33N 51°06' E 006°53'88 5.8
2014-Oct-23 04:27N 50°04' E 008°32'3 0.5
2014-Oct-22 21:33N 50°05' E 008°36'5 4.9
2014-Oct-22 20:33N 50°06' E 008°44'2 2.2
2014-Oct-22 19:33N 50°07' E 008°47'4 3.6
2014-Oct-22 18:33N 50°07' E 008°52'2 1.9
2014-Oct-22 17:33N 50°07' E 008°55'0 0.0
2014-Oct-22 16:33N 50°07' E 008°55'0 0.0
2014-Oct-22 15:33N 50°07' E 008°55'0 0.0
2014-Oct-22 14:33N 50°07' E 008°55'0 0.0
2014-Oct-22 13:33N 50°07' E 008°55'0 0.0
2014-Oct-22 12:33N 50°07' E 008°55'0 0.0
2014-Oct-22 11:33N 50°07' E 008°55'0 0.1
2014-Oct-22 10:33N 50°07' E 008°55'0 0.0
2014-Oct-22 09:33N 50°07' E 008°55'0 0.0
2014-Oct-22 08:33N 50°07' E 008°55'2 1.8
2014-Oct-22 07:33N 50°07' E 008°52'4 3.8
2014-Oct-22 06:33N 50°07' E 008°46'3 2.9
2014-Oct-22 05:32N 50°06' E 008°42'6 4.5
2014-Oct-22 04:12N 50°06' E 008°33'  
2014-Oct-18 05:10N 51°05' E 006°51'2 4.0
2014-Oct-18 04:33N 51°07' E 006°52'3 2.8
2014-Oct-18 03:33N 51°09' E 006°49'3 3.1
2014-Oct-18 02:33N 51°11' E 006°45'0 0.1
2014-Oct-18 01:33N 51°11' E 006°45'0 0.0
2014-Oct-18 00:33N 51°11' E 006°45'0 0.0
2014-Oct-17 23:33N 51°11' E 006°45'0 0.0
2014-Oct-17 22:33N 51°11' E 006°45'0 0.0
2014-Oct-17 21:33N 51°11' E 006°45'0 0.0
2014-Oct-17 20:33N 51°11' E 006°45'0 0.1
2014-Oct-17 19:33N 51°11' E 006°45'3 2.8
2014-Oct-17 18:33N 51°14' E 006°45'2 2.5
2014-Oct-17 17:33N 51°16' E 006°43'4 4.2
2014-Oct-17 16:33N 51°20' E 006°43'31 3.6
2014-Oct-17 08:09N 51°47' E 006°19'19 5.1
2014-Oct-17 04:31N 51°52' E 005°50'6 6.1
2014-Oct-17 03:33N 51°54' E 005°41'5 5.5
2014-Oct-17 02:33N 51°54' E 005°32'0 0.0
2014-Oct-17 01:33N 51°54' E 005°32'0 0.0
2014-Oct-17 00:33N 51°54' E 005°32'0 0.0
2014-Oct-16 23:33N 51°54' E 005°32'0 0.0
2014-Oct-16 22:32N 51°54' E 005°32'0 0.0
2014-Oct-16 21:33N 51°54' E 005°32'0 0.0
2014-Oct-16 20:33N 51°54' E 005°32'0 0.0
2014-Oct-16 19:33N 51°54' E 005°32'3 2.5
2014-Oct-16 18:33N 51°53' E 005°29'6 5.6
2014-Oct-16 17:33N 51°49' E 005°23'5 4.8
2014-Oct-16 16:33N 51°49' E 005°15'6 5.9
2014-Oct-16 15:33N 51°50' E 005°05'7 6.9
2014-Oct-16 14:33N 51°49' E 004°54'7 6.9
2014-Oct-16 13:33N 51°49' E 004°43'3 2.6
2014-Oct-16 12:34N 51°49' E 004°39'3 2.5
2014-Oct-16 11:33N 51°46' E 004°38'7 6.8
2014-Oct-16 10:30N 51°42' E 004°29'3 3.7
2014-Oct-16 09:33N 51°41' E 004°24'7 7.3
2014-Oct-16 08:33N 51°39' E 004°12'2 1.5
2014-Oct-16 07:32N 51°40' E 004°10'4 4.6
2014-Oct-16 06:33N 51°37' E 004°04'5 5.5
2014-Oct-16 05:33N 51°32' E 003°60'5 5.1
2014-Oct-16 04:33N 51°27' E 004°01'1010.0
2014-Oct-16 03:34N 51°20' E 003°49'1 0.6
2014-Oct-16 02:33N 51°20' E 003°49'0 0.0
2014-Oct-16 01:33N 51°20' E 003°49'0 0.0
2014-Oct-16 00:33N 51°20' E 003°49'0 0.0
2014-Oct-15 23:33N 51°20' E 003°49'0 0.0
2014-Oct-15 22:33N 51°20' E 003°49'0 0.0
2014-Oct-15 21:33N 51°20' E 003°49'7 7.0
2014-Oct-15 20:33N 51°13' E 003°48'8 7.5
2014-Oct-15 19:33N 51°06' E 003°45'0 0.3
2014-Oct-15 18:34N 51°05' E 003°45'0 0.0
2014-Oct-15 17:33N 51°05' E 003°45'0 0.0
2014-Oct-15 16:33N 51°05' E 003°45'0 0.0
2014-Oct-15 15:33N 51°05' E 003°45'0 0.0
2014-Oct-15 14:33N 51°05' E 003°45'0 0.0
2014-Oct-15 13:33N 51°05' E 003°45'0 0.0
2014-Oct-15 12:33N 51°05' E 003°45'0 0.3
2014-Oct-15 11:33N 51°06' E 003°45'0 0.0
2014-Oct-15 10:33N 51°06' E 003°45'0 0.0
2014-Oct-15 09:33N 51°06' E 003°45'0 0.0
2014-Oct-15 08:33N 51°06' E 003°45'4 3.6
2014-Oct-15 07:33N 51°09' E 003°47'0 0.1
2014-Oct-15 06:33N 51°09' E 003°47'0 0.0
2014-Oct-15 05:33N 51°09' E 003°47'0 0.0
2014-Oct-15 04:33N 51°09' E 003°47'0 0.0
2014-Oct-15 03:34N 51°09' E 003°47'0 0.0
2014-Oct-15 02:33N 51°09' E 003°47'0 0.0
2014-Oct-15 01:34N 51°09' E 003°47'0 0.0
2014-Oct-15 00:33N 51°09' E 003°47'0 0.0
2014-Oct-14 23:33N 51°09' E 003°47'0 0.0
2014-Oct-14 22:33N 51°09' E 003°47'0 0.0
2014-Oct-14 21:33N 51°09' E 003°47'0 0.0
2014-Oct-14 20:33N 51°09' E 003°47'0 0.0
2014-Oct-14 19:33N 51°09' E 003°47'0 0.0
2014-Oct-14 18:33N 51°09' E 003°47'0 0.0
2014-Oct-14 17:33N 51°09' E 003°47'0 0.0
2014-Oct-14 16:33N 51°09' E 003°47'5 4.9
2014-Oct-14 15:33N 51°14' E 003°48'6 5.9
2014-Oct-14 14:33N 51°20' E 003°49'0 0.0
2014-Oct-14 13:31N 51°20' E 003°49'0 0.0
2014-Oct-14 12:33N 51°20' E 003°49'0 0.0
2014-Oct-14 11:33N 51°20' E 003°49'0 0.0
2014-Oct-14 10:33N 51°20' E 003°49'0 0.0
2014-Oct-14 09:33N 51°20' E 003°49'0 0.0
2014-Oct-14 08:33N 51°20' E 003°49'0 0.0
2014-Oct-14 07:33N 51°20' E 003°49'0 0.0
2014-Oct-14 06:33N 51°20' E 003°49'0 0.0
2014-Oct-14 05:33N 51°20' E 003°49'0 0.0
2014-Oct-14 04:33N 51°20' E 003°49'0 0.0
2014-Oct-14 03:33N 51°20' E 003°49'0 0.0
2014-Oct-14 02:31N 51°20' E 003°49'0 0.0
2014-Oct-14 01:32N 51°20' E 003°49'0 0.0
2014-Oct-14 00:32N 51°20' E 003°49'0 0.0
2014-Oct-13 23:33N 51°20' E 003°49'  

Dump ship's entire track history